Weather History for Middletown, PA

Change the Weather History Date:

Tuesday, July 16, 2013

  Actual Average Record
Temperature  
Mean Temperature 85 °F 76 °F  
Max Temperature 93 °F 86 °F 104 °F (1988)
Min Temperature 77 °F 67 °F 52 °F (1946)
Degree Days  
Heating Degree Days 0 0  
Month to date heating degree days 0 0  
Since 1 June heating degree days 2 18  
Since 1 July heating degree days 0 0  
Cooling Degree Days 20 11  
Month to date cooling degree days 230 174  
Year to date cooling degree days 537 452  
Since 1 June cooling degree days 454 387  
Growing Degree Days 34 (Base 50)    
Moisture  
Dew Point 69 °F    
Average Humidity 62    
Maximum Humidity 85    
Minimum Humidity 38    
Precipitation  
Precipitation 0.00 in 0.16 in 1.59 in (1947)
Month to date precipitation 1.68 2.39  
Year to date precipitation 17.61 21.52  
Sea Level Pressure  
Sea Level Pressure 30.21 in    
Wind  
Wind Speed 5 mph (NNW)    
Max Wind Speed 14 mph    
Max Gust Speed 20 mph    
Visibility 10 miles    
Events      
T = Trace of Precipitation, MM = Missing Value Source: NWS Daily Summary

Daily Weather History Graph

Daily Weather History Graph

Search for Another Location

Airport:

Trip Planner

Search our weather history database for the weather conditions in past years. The results will help you decide how hot, cold, wet, or windy it might be!

Date:

Astronomy

Jul. 16, 2013 Rise Set
Actual Time 5:51 AM EDT 8:34 PM EDT
Civil Twilight 5:19 AM EDT 9:06 PM EDT
Nautical Twilight 4:39 AM EDT 9:46 PM EDT
Astronomical Twilight 3:53 AM EDT 10:31 PM EDT
Moon 2:13 PM EDT (7/16) 12:19 AM EDT (7/16)
Length of Visible Light 15h 47m
Length of Day
14h 43m
First Quarter, 56% of the Moon is Illuminated
Jul 16
First Quarter
Jul 22
Full
Jul 29
Last Quarter
Aug 6
New
Aug 14
First Quarter

Hourly Weather History & Observations

Time (EDT) Temp. Heat Index Dew Point Humidity Pressure Visibility Wind Dir Wind Speed Gust Speed Precip Events Conditions
12:56 AM 82.0 °F 86.3 °F 71.1 °F 69% 30.20 in 10.0 mi NW 5.8 mph - N/A   Scattered Clouds
1:56 AM 81.0 °F 84.9 °F 71.1 °F 72% 30.19 in 10.0 mi NW 5.8 mph - N/A   Scattered Clouds
2:56 AM 80.1 °F 83.8 °F 72.0 °F 76% 30.19 in 10.0 mi NW 5.8 mph - N/A   Scattered Clouds
3:56 AM 79.0 °F - 72.0 °F 79% 30.20 in 10.0 mi NW 5.8 mph - N/A   Scattered Clouds
4:56 AM 78.1 °F - 72.0 °F 81% 30.21 in 10.0 mi NNW 4.6 mph - N/A   Scattered Clouds
5:56 AM 79.0 °F - 72.0 °F 79% 30.23 in 10.0 mi WNW 4.6 mph - N/A   Scattered Clouds
6:56 AM 78.1 °F - 73.0 °F 84% 30.24 in 9.0 mi NW 3.5 mph - N/A   Scattered Clouds
7:56 AM 81.0 °F 85.8 °F 73.0 °F 77% 30.25 in 10.0 mi NW 5.8 mph - N/A   Scattered Clouds
8:56 AM 84.0 °F 86.5 °F 66.9 °F 56% 30.25 in 10.0 mi NNE 6.9 mph - N/A   Clear
9:56 AM 86.0 °F 88.8 °F 66.9 °F 53% 30.25 in 10.0 mi NE 6.9 mph - N/A   Clear
10:56 AM 88.0 °F 90.3 °F 66.0 °F 48% 30.25 in 10.0 mi NNW 8.1 mph - N/A   Clear
11:56 AM 89.1 °F 92.1 °F 66.9 °F 48% 30.24 in 10.0 mi North 9.2 mph - N/A   Partly Cloudy
12:56 PM 90.0 °F 91.7 °F 64.9 °F 43% 30.22 in 10.0 mi NNE 8.1 mph - N/A   Partly Cloudy
1:56 PM 91.6 °F 93.5 °F 64.8 °F 41% 30.21 in 10.0 mi North 9.2 mph - N/A   Scattered Clouds
2:56 PM 91.9 °F 92.9 °F 63.0 °F 38% 30.19 in 10.0 mi North 8.1 mph - N/A   Partly Cloudy
3:56 PM 91.9 °F 93.3 °F 64.0 °F 39% 30.18 in 10.0 mi North - - N/A   Scattered Clouds
4:56 PM 91.9 °F 94.1 °F 64.9 °F 41% 30.17 in 10.0 mi NE 8.1 mph - N/A   Scattered Clouds
5:56 PM 90.0 °F 91.7 °F 64.9 °F 43% 30.17 in 10.0 mi NNE 5.8 mph - N/A   Scattered Clouds
6:56 PM 91.0 °F 93.0 °F 64.9 °F 42% 30.17 in 10.0 mi Variable 4.6 mph - N/A   Scattered Clouds
7:56 PM 90.0 °F 91.7 °F 64.9 °F 43% 30.17 in 10.0 mi Variable 3.5 mph - N/A   Partly Cloudy
8:56 PM 82.0 °F 86.7 °F 72.0 °F 71% 30.18 in 10.0 mi Calm Calm - N/A   Partly Cloudy
9:56 PM 82.0 °F 87.4 °F 73.0 °F 74% 30.19 in 10.0 mi Calm Calm - N/A   Partly Cloudy
10:56 PM 81.0 °F 84.9 °F 71.1 °F 72% 30.19 in 10.0 mi Calm Calm - N/A   Mostly Cloudy
11:56 PM 81.0 °F 85.2 °F 72.0 °F 74% 30.20 in 10.0 mi Calm Calm - N/A   Mostly Cloudy